Location: Pedholt
(56.0260°N, 10.2097°E)
Time: 01:56:38
(UTC+00:00)

SR - Pass Details

Date: 31 July 2021
Orbit: 581 x 873 km, 66.7° (Epoch: 27 September)

Event Time Altitude Azimuth Distance (km) Brightness Sun altitude
Rises 14:53:29 0° 312° (NW) 3,150 ? 35.8°
Reaches altitude 10° 14:56:19 10° 299° (WNW) 2,168 ? 35.4°
Maximum altitude 15:00:07 23° 248° (WSW) 1,417 ? 34.9°
Drops below altitude 10° 15:03:40 10° 196° (SSW) 2,021 ? 34.5°
Sets 15:06:14 0° 182° (S) 2,883 ? 34.1°
